DELTA 1 DEB, 3812

Orbit data source: Space-Track

DELTA 1 DEB, 3812 is space debris in SSO originally from a launch on Sun, 15 Dec 1968 UTC launched from the Air Force Western Test Range (AFWTR). Debris objects in space refer to the collection of defunct objects orbiting the Earth. Examples of debris include non-operational satellites, rocket bodies, and fragments generated from explosions, collisions, or faulty payload assembly.

Loading next visibility...
Identifier
3812, 1968-114D
Orbit
SSO
Last TLE update
18 hours ago
Origin
Manufacturer
Unknown
Mission
Spacecraft
Bus & Motor
Unknown
Mass
Unknown
Launch date (UTC)
1968-12-15 (57 years ago)
Launch vehicle
Unknown
Launch site
Air Force Western Test Range (AFWTR)
Object type
Payload
Rocket body
Debris
Shape & HBR
Unknown
Radar Cross Section
Small (<0.1 m²)

Expand to show TLE details & history

TLE from 18 hours ago
0 DELTA 1 DEB
1  3812U 68114D   25181.61535279 -.00000040  00000-0  53214-4 0  9993
2  3812 102.4564 192.4250 0071379  91.7106  27.6376 12.37777091554506
Epoch: 2025-06-30T14:46Z
TLE epoch observation values (Epoch: 2025-06-30T14:46:06.481Z)
Latitude
58.08044°
Longitude
-107.36145°
Altitude
1,475.765 km
Speed
7.153 km/s
True Right ascension
02h 12m 21s
True Declination
57° 56' 24"
Sunlit
Object was in daylight at epoch
Visualization orbit readout
Latitude
-21.38674°
Longitude
-132.20424°
Altitude
1,543.92 km
Speed
7.085 km/s
Apparent Right ascension
03h 13m 30s
Apparent Declination
-45° 32' 40"
Sunlit
Object is in daylight
Visualization observer readout
Local Sidereal Time
20:18:06
Azimuth
122.899° SE
Elevation
-35.916°
Doppler factor
1
Orbital elements
Apogee altitude
1,569.976 km
Perigee altitude
1,457.315 km
Semi-major axis
7,891.782 km
Eccentricity
0.00714
Inclination
102.4564°
RAAN
192.425°
Arg. of periapsis
91.7106°
True anomaly
Unknown
Mean anomaly
27.6376°
Eccentric anomaly
Unknown
Mean motion
3.09585 °/min
Orbital period
116.28 mins
BSTAR
0.000053214
Loading maneuver chart data...
Loading SW <> Apogee altitude chart data...
Loading historical data...
Loading historical data...
Loading historical data...
Loading historical data...
Loading historical data...
Loading historical data...
Loading historical data...

DELTA 1 DEB Visibility forecast

Observer location: undefined°, undefined°

Span
Click to sort rows by Start time (UTC) header in descending order
Start Az.
Max El. time (UTC)
Max El. Az.
Max El.
End time (UTC)
End Az.
11 mins2025-07-01 12:07:57.344Z48.304° ENE2025-07-01 12:13:57.344Z95.444° ESE19.958°2025-07-01 12:18:57.344Z135.422° SSE
15 mins2025-07-01 14:01:57.344Z14.82° NNE2025-07-01 14:08:57.344Z263.808° W44.312°2025-07-01 14:16:57.344Z206.797° SW
8 mins2025-07-01 15:57:57.344Z339.426° N2025-07-01 16:00:57.344Z315.163° NNW17.492°2025-07-01 16:05:57.344Z275.89° WNW
13 mins2025-07-01 23:14:57.344Z117.751° SE2025-07-01 23:20:57.344Z65.254° ENE30.916°2025-07-01 23:27:57.344Z359.282° N
14 mins2025-07-02 01:08:57.344Z187.566° SSW2025-07-02 01:14:57.344Z251.873° W38.15°2025-07-02 01:22:57.344Z331.379° NNW
|